Location: *
(33.3200°N, 8.3381°W)
Time: 19:48:44
(UTC+00:00)

Meteor 2-1 Rocket - Pass Details

Date: 09 April 2020
Orbit: 828 x 909 km, 81.3° (Epoch: 27 May)

Event Time Altitude Azimuth Distance (km) Brightness Sun altitude
Exits shadow 21:23:23 84° 42° (NE) 912 4.2 -28.6°
Drops below altitude 10° 21:29:09 10° 9° (N) 2,596 7.0 -29.6°
Sets 21:31:38 0° 9° (N) 3,542 7.8 -30.0°
